• In Russia
  • List of Countries
  • For 7 days
  • Water Temperature
  • Satellite Maps
  • Weather Map
  • Weather Widgets
  • user-avatar
    Login

    Hourly Weather Sidi Bu-l-Abbas

    Today, 22 February, Thursday

    Time Temperature Precipitation Wind Pressure Humidity
    00:00 +7°C° 0.2 mm 2 mps 712 mmHg 91%
    01:00 +6°C° 0.2 mm 2 mps 712 mmHg 91%
    02:00 +6°C° 0.2 mm 2 mps 712 mmHg 90%
    03:00 +6°C° 0.2 mm 2 mps 712 mmHg 90%
    04:00 +6°C° 0.1 mm 2 mps 712 mmHg 90%
    05:00 +6°C° 0.1 mm 2 mps 712 mmHg 89%
    06:00 +6°C° 0.1 mm 1 mps 712 mmHg 89%
    07:00 +7°C° 0 mm 1 mps 712 mmHg 83%
    08:00 +8°C° 0 mm 1 mps 713 mmHg 76%
    09:00 +9°C° 0 mm 1 mps 713 mmHg 70%
    10:00 +10°C° 0 mm 1 mps 713 mmHg 63%
    11:00 +10°C° 0 mm 2 mps 713 mmHg 56%
    12:00 +12°C° 0 mm 2 mps 713 mmHg 49%
    13:00 +11°C° 0 mm 3 mps 713 mmHg 48%
    14:00 +12°C° 0 mm 4 mps 712 mmHg 47%
    15:00 +12°C° 0 mm 5 mps 712 mmHg 46%
    16:00 +11°C° 0 mm 4 mps 712 mmHg 53%
    17:00 +10°C° 0 mm 4 mps 712 mmHg 60%
    18:00 +9°C° 0 mm 3 mps 712 mmHg 67%
    19:00 +8°C° 0 mm 3 mps 712 mmHg 71%
    20:00 +7°C° 0 mm 2 mps 712 mmHg 74%
    21:00 +7°C° 0 mm 2 mps 713 mmHg 77%
    22:00 +7°C° 0 mm 2 mps 713 mmHg 77%
    23:00 +7°C° 0 mm 2 mps 713 mmHg 77%

    Tomorrow, 23 February, Friday

    Time Temperature Precipitation Wind Pressure Humidity
    00:00 +6°C° 0 mm 2 mps 713 mmHg 77%
    01:00 +6°C° 0 mm 2 mps 712 mmHg 78%
    02:00 +6°C° 0 mm 2 mps 712 mmHg 78%
    03:00 +6°C° 0 mm 2 mps 712 mmHg 79%
    04:00 +6°C° 0 mm 2 mps 712 mmHg 79%
    05:00 +5°C° 0 mm 2 mps 712 mmHg 79%
    06:00 +5°C° 0 mm 2 mps 711 mmHg 80%
    07:00 +7°C° 0 mm 2 mps 712 mmHg 72%
    08:00 +10°C° 0 mm 1 mps 712 mmHg 64%
    09:00 +11°C° 0 mm 1 mps 713 mmHg 57%
    10:00 +12°C° 0 mm 2 mps 713 mmHg 51%
    11:00 +14°C° 0 mm 2 mps 712 mmHg 45%
    12:00 +15°C° 0 mm 2 mps 712 mmHg 39%
    13:00 +14°C° 0 mm 3 mps 712 mmHg 38%
    14:00 +16°C° 0 mm 3 mps 711 mmHg 37%
    15:00 +15°C° 0 mm 4 mps 711 mmHg 36%
    16:00 +14°C° 0 mm 4 mps 711 mmHg 42%
    17:00 +12°C° 0 mm 4 mps 710 mmHg 49%
    18:00 +11°C° 0 mm 4 mps 710 mmHg 56%
    19:00 +10°C° 0 mm 3 mps 710 mmHg 59%
    20:00 +9°C° 0 mm 3 mps 711 mmHg 63%
    21:00 +8°C° 0 mm 2 mps 711 mmHg 66%
    22:00 +7°C° 0 mm 2 mps 711 mmHg 68%
    23:00 +7°C° 0 mm 2 mps 711 mmHg 69%

    Day after tomorrow, 24 February, Saturday

    Time Temperature Precipitation Wind Pressure Humidity
    00:00 +8°C° 0 mm 1 mps 711 mmHg 70%
    01:00 +7°C° 0 mm 1 mps 710 mmHg 71%
    02:00 +7°C° 0 mm 1 mps 710 mmHg 72%
    03:00 +7°C° 0 mm 1 mps 710 mmHg 73%
    04:00 +6°C° 0 mm 1 mps 710 mmHg 74%
    05:00 +6°C° 0 mm 1 mps 710 mmHg 75%
    06:00 +6°C° 0 mm 1 mps 710 mmHg 76%
    07:00 +8°C° 0 mm 1 mps 710 mmHg 70%
    08:00 +8°C° 0 mm 2 mps 711 mmHg 64%
    09:00 +10°C° 0 mm 2 mps 711 mmHg 58%
    10:00 +12°C° 0 mm 2 mps 712 mmHg 54%
    11:00 +12°C° 0 mm 3 mps 712 mmHg 51%
    12:00 +13°C° 0 mm 3 mps 712 mmHg 48%
    13:00 +13°C° 0 mm 4 mps 712 mmHg 48%
    14:00 +13°C° 0 mm 4 mps 713 mmHg 48%
    15:00 +13°C° 0 mm 5 mps 713 mmHg 49%
    16:00 +12°C° 0 mm 4 mps 713 mmHg 56%
    17:00 +10°C° 0 mm 4 mps 713 mmHg 63%
    18:00 +9°C° 0 mm 3 mps 714 mmHg 71%
    19:00 +8°C° 0 mm 2 mps 714 mmHg 76%
    20:00 +8°C° 0 mm 1 mps 715 mmHg 82%
    21:00 +6°C° 0 mm 0 mps 716 mmHg 87%
    22:00 +6°C° 0 mm 1 mps 716 mmHg 88%
    23:00 +6°C° 0 mm 1 mps 716 mmHg 88%

    25 February, Sunday

    Time Temperature Precipitation Wind Pressure Humidity
    00:00 +6°C° 0 mm 1 mps 716 mmHg 89%
    01:00 +6°C° 0 mm 1 mps 716 mmHg 89%
    02:00 +5°C° 0 mm 1 mps 716 mmHg 88%
    03:00 +5°C° 0 mm 1 mps 716 mmHg 88%
    04:00 +5°C° 0 mm 1 mps 716 mmHg 87%
    05:00 +5°C° 0 mm 1 mps 716 mmHg 86%
    06:00 +5°C° 0 mm 1 mps 716 mmHg 85%
    07:00 +7°C° 0 mm 1 mps 717 mmHg 75%
    08:00 +9°C° 0 mm 1 mps 718 mmHg 64%
    09:00 +11°C° 0 mm 1 mps 718 mmHg 54%
    10:00 +12°C° 0 mm 1 mps 718 mmHg 49%
    11:00 +14°C° 0 mm 1 mps 718 mmHg 45%
    12:00 +15°C° 0 mm 1 mps 718 mmHg 40%
    13:00 +15°C° 0 mm 2 mps 718 mmHg 40%
    14:00 +16°C° 0 mm 2 mps 717 mmHg 39%
    15:00 +16°C° 0 mm 2 mps 717 mmHg 38%
    16:00 +15°C° 0 mm 2 mps 717 mmHg 44%
    17:00 +13°C° 0 mm 2 mps 717 mmHg 50%
    18:00 +12°C° 0 mm 2 mps 716 mmHg 56%
    19:00 +10°C° 0 mm 2 mps 717 mmHg 58%
    20:00 +9°C° 0 mm 2 mps 717 mmHg 59%
    21:00 +9°C° 0 mm 2 mps 717 mmHg 60%
    22:00 +9°C° 0 mm 2 mps 716 mmHg 60%
    23:00 +9°C° 0 mm 2 mps 716 mmHg 59%

    26 February, Monday

    Time Temperature Precipitation Wind Pressure Humidity
    00:00 +8°C° 0 mm 2 mps 716 mmHg 59%
    01:00 +8°C° 0 mm 2 mps 715 mmHg 58%
    02:00 +8°C° 0 mm 2 mps 715 mmHg 58%
    03:00 +8°C° 0 mm 2 mps 715 mmHg 57%
    04:00 +8°C° 0 mm 2 mps 714 mmHg 57%
    05:00 +8°C° 0 mm 2 mps 714 mmHg 58%
    06:00 +8°C° 0 mm 2 mps 714 mmHg 58%
    07:00 +10°C° 0 mm 2 mps 714 mmHg 52%
    08:00 +14°C° 0 mm 2 mps 714 mmHg 46%
    09:00 +16°C° 0 mm 2 mps 715 mmHg 40%
    10:00 +17°C° 0 mm 2 mps 714 mmHg 38%
    11:00 +19°C° 0 mm 3 mps 714 mmHg 36%
    12:00 +20°C° 0 mm 3 mps 714 mmHg 34%
    13:00 +20°C° 0 mm 3 mps 713 mmHg 35%
    14:00 +20°C° 0 mm 4 mps 712 mmHg 36%
    15:00 +20°C° 0 mm 4 mps 712 mmHg 37%
    16:00 +18°C° 0 mm 3 mps 711 mmHg 44%
    17:00 +16°C° 0 mm 2 mps 711 mmHg 50%
    18:00 +14°C° 0 mm 2 mps 711 mmHg 56%
    19:00 +14°C° 0 mm 1 mps 711 mmHg 58%
    20:00 +14°C° 0 mm 1 mps 711 mmHg 60%
    21:00 +13°C° 0 mm 1 mps 711 mmHg 62%
    22:00 +13°C° 0.1 mm 1 mps 712 mmHg 64%
    23:00 +13°C° 0.1 mm 2 mps 712 mmHg 66%

    27 February, Tuesday

    Time Temperature Precipitation Wind Pressure Humidity
    00:00 +12°C° 0.1 mm 2 mps 712 mmHg 68%
    01:00 +11°C° 0.3 mm 3 mps 712 mmHg 72%
    02:00 +11°C° 0.3 mm 3 mps 712 mmHg 76%
    03:00 +10°C° 0.3 mm 4 mps 713 mmHg 80%
    04:00 +10°C° 0.2 mm 4 mps 713 mmHg 82%
    05:00 +10°C° 0.2 mm 3 mps 713 mmHg 84%
    06:00 +9°C° 0.2 mm 3 mps 713 mmHg 86%
    07:00 +10°C° 0.1 mm 4 mps 714 mmHg 82%
    08:00 +11°C° 0.1 mm 4 mps 714 mmHg 79%
    09:00 +12°C° 0.1 mm 5 mps 715 mmHg 75%
    10:00 +12°C° 0 mm 7 mps 715 mmHg 69%
    11:00 +13°C° 0 mm 8 mps 715 mmHg 63%
    12:00 +14°C° 0 mm 10 mps 715 mmHg 56%
    13:00 +14°C° 0 mm 10 mps 715 mmHg 54%
    14:00 +16°C° 0 mm 9 mps 714 mmHg 53%
    15:00 +16°C° 0 mm 9 mps 714 mmHg 51%
    16:00 +14°C° 0 mm 7 mps 715 mmHg 57%
    17:00 +13°C° 0 mm 6 mps 715 mmHg 64%
    18:00 +12°C° 0 mm 4 mps 715 mmHg 70%
    19:00 +11°C° 0 mm 3 mps 715 mmHg 74%
    20:00 +10°C° 0 mm 2 mps 715 mmHg 79%
    21:00 +9°C° 0 mm 2 mps 716 mmHg 84%
    22:00 +9°C° 0 mm 2 mps 715 mmHg 82%
    23:00 +9°C° 0 mm 2 mps 715 mmHg 81%
    Show more